STARLINK-11249, 60728

Orbit data source: Space-Track

STARLINK-11249, 60728 is a payload satellite owned by SpaceX/Seattle (US) in LEO that was launched on Wed, 28 Aug 2024 UTC via an FALCON 9 launch vehicle from the Air Force Eastern Test Range (AFETR). Payload-class satellites include a variety of spacecraft equipped with specific instruments for various scientific and technological missions. These include communications satellites like Starlink; space stations such as the ISS; scientific satellites like the Hubble; Earth observation satellites from companies like Planet Labs, Umbra, and HawkEye 360; GPS; miniature CubeSats for education and research; and military/defense satellites.

Loading next visibility...
Identifier
60728, 2024-152J
Orbit
LEO
Last TLE update
17 hours ago
Origin
Manufacturer
SpaceX/Seattle
Mission
Operational Commercial Communications
Bus & Motor
STARLINK V2M, Unknown motor
Mass
730 kg wet, ~700 kg dry
Launch date (UTC)
2024-08-28 (10 months ago)
Launch vehicle
FALCON 9
Launch site
Air Force Eastern Test Range (AFETR)
Object type
Payload
Rocket body
Debris
Shape & HBR
Box + 2 Pan, 29 m
Radar Cross Section
36.964 m², Large (>1 m²)

Expand to show TLE details & history

TLE from 17 hours ago
0 STARLINK-11249
1 60728U 24152J   25181.72924459 -.00000440  00000-0  12200-5 0  9995
2 60728  53.1584 278.1961 0000487  47.7203 312.3856 15.69706293 49264
Epoch: 2025-06-30T17:30Z
TLE epoch observation values (Epoch: 2025-06-30T17:30:06.732Z)
Latitude
-0.00004°
Longitude
96.63315°
Altitude
360.431 km
Speed
7.694 km/s
True Right ascension
18h 32m 47s
True Declination
0° 00' 00"
Sunlit
Object was in full shadow at epoch
Visualization orbit readout
Latitude
29.84359°
Longitude
118.45091°
Altitude
361.09 km
Speed
7.697 km/s
Apparent Right ascension
16h 12m 43s
Apparent Declination
-13° 27' 35"
Sunlit
Object is in full shadow
Visualization observer readout
Local Sidereal Time
22:06:49
Azimuth
258.682° W
Elevation
-7.479°
Doppler factor
1
Orbital elements
Apogee altitude
360.326 km
Perigee altitude
359.67 km
Semi-major axis
6,738.135 km
Eccentricity
0.00005
Inclination
53.1584°
RAAN
278.1961°
Arg. of periapsis
47.7203°
True anomaly
Unknown
Mean anomaly
312.3856°
Eccentric anomaly
Unknown
Mean motion
3.92404 °/min
Orbital period
91.74 mins
BSTAR
0.00000122
Loading maneuver chart data...
Loading SW <> Apogee altitude chart data...
Loading historical data...
Loading historical data...
Loading historical data...
Loading historical data...
Loading historical data...
Loading historical data...
Loading historical data...

STARLINK-11249 Visibility forecast

Observer location: undefined°, undefined°

Span
Click to sort rows by Start time (UTC) header in descending order
Start Az.
Max El. time (UTC)
Max El. Az.
Max El.
End time (UTC)
End Az.
4 mins2025-07-02 09:27:21.996Z271.73° WNW2025-07-02 09:28:21.996Z302.212° NW28.607°2025-07-02 09:31:21.996Z33.37° NE
|